Weather Roundup
Issued by NWS

Home | Current Version | Previous Version | Text Only | Print | Product List | Glossary On
Versions: 1 2 3 4 5 6 7 8 9 10 11 12 13 14 15 16 17 18 19 20 21 22 23 24 25 26 27 28 29 30 31 32 33 34 35 36 37 38 39 40 41 42 43 44 45 46 47 48 49 50
601
NZUS93 KARX 022210
HRRWXR

CURRENT HOURLY OBSERVATIONS ACROSS
MUCH OF THE UPPER MISSISSIPPI VALLEY
NATIONAL WEATHER SERVICE LA CROSSE WI
500 PM CDT MON MAY 02 2016


...SOUTHEAST MINNESOTA...


CITY           SKY/WX    TMP DP  RH WIND       PRES   REMARKS
ROCHESTER      CLOUDY    63  37  38 VRB3      30.03F
ROCHESTER/MAYO CLOUDY    62  35  37 E5        30.02F
WINONA         PTSUNNY   63  34  34 SE3       30.02F
AUSTIN         SUNNY     61  36  39 SW3       30.03F
ALBERT LEA     CLOUDY    63  37  39 S6        30.03F
DODGE CENTER   MOSUNNY   61  37  41 CALM      30.03F
PRESTON        MOSUNNY   61  35  38 CALM      30.04S
OWATONNA       MOSUNNY   64  32  29 S5        30.02F
FARIBAULT      MOSUNNY   66  34  30 SW5       30.02F
$$

...ELSEWHERE IN MINNESOTA...


CITY           SKY/WX    TMP DP  RH WIND       PRES   REMARKS
MINNEAPOLIS    MOSUNNY   65  30  27 MISG      30.01F
INTNL FALLS    SUNNY     67  25  20 VRB5      29.95F
DULUTH         MOSUNNY   63  32  31 SE9       29.99F
RED WING       SUNNY     66  30  26 S6        30.00F
REDWOOD FALLS  MOSUNNY   65  30  27 S3        30.00F
MANKATO        SUNNY     63  32  31 SE3       30.03S
WORTHINGTON    CLOUDY    61  38  42 CALM      30.04F
FAIRMONT       PTSUNNY   61  30  31 W5        30.03F
$$

...SOUTHWEST WISCONSIN...


CITY           SKY/WX    TMP DP  RH WIND       PRES   REMARKS
LA CROSSE      CLOUDY    64  34  32 NW6       30.01F
PRAIRIE DU CHI CLOUDY    62  34  35 SW5       30.02F
BOSCOBEL       PTSUNNY   66  32  28 NE6       30.02F
LONE ROCK      PTSUNNY   64  32  30 N5        30.02F
PLATTEVILLE    PTSUNNY   61  36  39 N5        30.02F
FORT MC COY    CLOUDY    64  32  30 CALM      30.02F
CAMP DOUGLAS   PTSUNNY   64  37  36 W7        30.01F
MAUSTON-NEW LI MOCLDY    62  32  32 CALM      30.01F
VIROQUA        CLOUDY    60  32  34 CALM      30.03F
WIS DELLS      PTSUNNY   63  28  26 CALM      30.00F
$$

...ELSEWHERE IN WISCONSIN...


CITY           SKY/WX    TMP DP  RH WIND       PRES   REMARKS
MILWAUKEE      MOSUNNY   55  36  48 N12       30.03F
MADISON        PTSUNNY   62  33  33 NE7       30.01F
GREEN BAY      SUNNY     63  30  28 CALM      30.01F
EAU CLAIRE     MOSUNNY   63  31  30 SW6       30.00F
BLACK RVR FLS  FAIR      65  31  27 NW6       30.01F
MEDFORD        PTSUNNY   60  34  37 SW6       30.01F
WAUSAU         PTSUNNY   64  32  30 CALM      29.99F
WIS RAPIDS     PTSUNNY   66  28  24 NW9       30.02F
MARSHFIELD     CLOUDY    65  31  28 VRB3      30.01F
RICE LAKE      SUNNY     63  28  26 CALM      30.02F
$$

...NORTHEAST IOWA...


CITY           SKY/WX    TMP DP  RH WIND       PRES   REMARKS
WATERLOO       CLOUDY    62  36  37 VRB5      30.03F
DUBUQUE        CLOUDY    59  36  42 VRB5      30.03F
DECORAH        CLOUDY    61  37  41 CALM      30.03S
MASON CITY     PTSUNNY   61  39  44 CALM      30.05F
CHARLES CITY   PTSUNNY   61  37  41 CALM      30.04F
OELWEIN        MOSUNNY   63  34  34 N6        30.04F
$$

...ELSEWHERE IN IOWA...


CITY           SKY/WX    TMP DP  RH WIND       PRES   REMARKS
DES MOINES     LGT RAIN  60  37  42 E9        30.05S
IOWA CITY      CLOUDY    57  42  57 N7        30.06S
FORT DODGE     PTSUNNY   61  39  44 W3        30.05F
MARSHALLTOWN   CLOUDY    60  40  47 NE7       30.04F
CEDAR RAPIDS   CLOUDY    58  44  60 VRB5      30.03F
$$

...NORTHERN ILLINOIS...


CITY           SKY/WX    TMP DP  RH WIND       PRES   REMARKS
CHICAGO-OHARE  PTSUNNY   57  33  40 N14       30.01F
CHICAGO-MIDWAY PTSUNNY   56  37  49 NE15G23   30.02F
MOLINE         CLOUDY    60  40  47 NE7       30.02F
ROCKFORD       PTSUNNY   60  37  42 N5        30.03F
PEORIA         CLOUDY    58  42  55 CALM      30.02S
$$

NOTE: "FAIR" INDICATES FEW OR NO CLOUDS BELOW 12,000 FEET WITH NO
SIGNIFICANT WEATHER AND/OR OBSTRUCTIONS TO VISIBILITY. WIND
SPEEDS ARE IN MILES-PER-HOUR.




USA.gov is the U.S. government's official web portal to all federal, state and local government web resources and services.